Starlink 5452

operational
NORAD ID: 54772 Int'l Des: 2022-175 Owner: SPXS Country: US Constellation: starlink
LEOCIRCULAR

关于 Starlink 5452

正在加载描述...

实时位置

正在加载3D地球...

即将过境

高度历史

Altitude vs Time

uPlot chart will show altitude changes over time

两行轨道根数

1 54772U 22175Q 26035.67654979 .00000180 00000-0 29397-4 0 9994
2 54772 53.2164 177.4648 0001173 92.0700 268.0426 15.08838113175149
Epoch: Feb 4, 2026 • Age: 11 hours

当前状态

高度 554.3 km
速度 7.58 km/s
星下点 -41.81°S, 140.36°W
发射日期 Dec 17, 2022
运行时间 3.1 years
类型 internet

技术详情

分类 Payload
质量 305.00 kg
干质量 290.00 kg
总质量 305.00 kg
长度 0.20 m
直径 2.80 m
跨度 9.00 m
形状 Box + pan
制造商 SPXS
平台类型 Starlink
阶段状态 In Orbit
所有者/国家 SPXS/US

大型星座

Loading constellations...